星链-6362 (STARLINK-6362 )

导读

STARLINK-6362是美国星链计划的近地轨道卫星,于2023年7月16日发射,隶属于太空探索技术公司SpaceX。它是星链卫星互联网星座的组成部分,同批次一同入轨的卫星一同承担着为全球提供高速宽带互联网服务的任务,进一步扩充了星链星座的网络覆盖能力与服务容量。

基本信息
目录编号:
57350
目录名称:
STARLINK-6362
国际标识:
2023-099Y
轨道中心:
EARTH
卫星名称:
星链-6362
卫星全名:
星链-6362 (STARLINK-6362 )
卫星状态:
在轨 (已飞行1146 天)
发射日期:
2023-07-16 UTC
国别 :
美国 (US)
星等 :
--
轨道信息
数据来源 国际轨道数据 AOE轨道数据
星历时间 2026-09-03T21:57:58+0800
20小时前
查看轨道信息
2026-09-04T02:00:00+0800
16小时前
查看轨道信息
半长轴 6861.195km 6861.19km
偏心率 0.0001572 0.000154
轨道倾角 43.005° 43.004°
近地点辐角 280.417° 286.184°
升交点赤经 317.215° 316.268°
平近点角 79.651° 279.284°
近地点 481.979km 481.996km
远地点 484.137km 484.11km
周期 94.267分钟 94.267分钟
每日圈数 15.275771 15.275787
详细信息
固有亮度:
5
最大亮度:
2.5
卫星平台:
Starlink v1.5
覆盖范围:
全球
运营商:
太空探索技术公司
运营商所在国:
美国
制造商(研发单位):
太空探索技术公司
制造商所在国:
美国
使用方式:
暂无
卫星简介
星链(Starlink)计划是由太空探索技术公司(SpaceX)提出的一个巨型低轨卫星互联网星座项目,计划在2019年至2024年间在太空搭建由约1.2万颗卫星组成的“星链”网络,其中1584颗将部署在地球上空550千米处的近地轨道,并从2020年开始工作。该卫星仍在工作。
2D轨道图
3D轨道图
轨道高度分析图
轨道倾角分析图
轨道综合分析图
查看轨道综合分析图